Regional Weather Roundup
Issued by NWS

Home | Current Version | Previous Version | Text Only | Print | Product List | Glossary Off
Versions: 1 2 3 4 5 6 7 8 9 10 11 12 13 14 15 16 17 18 19 20 21 22 23 24 25 26 27 28 29 30 31 32 33 34 35 36 37 38 39 40 41 42 43 44 45 46 47 48 49 50

000
ASUS45 KSLC 221410
RWRUT

UTAH REGIONAL WEATHER ROUNDUP
NATIONAL WEATHER SERVICE SALT LAKE CITY UT
800 AM MDT FRI AUG 22 2014

UTZ001>011-023>025-221500-

NORTHERN UTAH

CITY           SKY/WX    TMP DP  RH WIND       PRES   REMARKS
HILL AFB       CLOUDY    64  48  56 E15       30.02S
LOGAN          PTSUNNY   59  55  87 SE5       30.05S
OGDEN          CLOUDY    64  50  60 CALM      30.01R
PROVO AIRPORT  MOSUNNY   63  45  51 SE15      30.07R
SALT LAKE CITY PTSUNNY   69  47  45 SE13      29.99R
VERNAL         MOSUNNY   57  49  74 CALM      30.14R
WENDOVER       CLOUDY    64  48  55 CALM      29.99R
HEBER CITY     PTSUNNY   52  48  87 CALM      30.12R
WEST JORDAN    PTSUNNY   68  54  60 S20       30.02S

$$

UTZ012>022-026-027-221500-

SOUTHERN UTAH

CITY           SKY/WX    TMP DP  RH WIND       PRES   REMARKS
BRYCE CANYON   CLOUDY    45  42  89 W8        30.28R
CEDAR CITY     SUNNY     57  46  66 SE5       30.16S
MILFORD        SUNNY     60  49  66 S16       30.10R
MOAB/CYNLANDS  LGT RAIN  67  53  61 CALM      30.06S
PRICE          SUNNY     61  44  53 NE3       30.14R
ST GEORGE      PTSUNNY   66  52  59 S6        30.06S
KANAB            N/A     61  54  77 CALM      30.19R

$$

REGIONAL REPORTS     COLORADO/ARIZONA

CITY           SKY/WX    TMP DP  RH WIND       PRES   REMARKS
CRAIG, CO      CLOUDY    56  49  77 CALM      30.20S
GRAND JUNCTION MOSUNNY   65  51  60 SE16      30.13R
RIFLE          PTSUNNY   62  51  67 NE8       30.18F
MONTROSE       CLOUDY    59  55  87 CALM      30.23R
CORTEZ         CLOUDY    58  56  93 S3        30.22R
PAGE, AZ       MOSUNNY   65  56  72 CALM      30.12R
GRAND CANYON   MOSUNNY   46  46 100 CALM      30.25S
KINGMAN        SUNNY     62  56  80 SE8       30.09R
FLAGSTAFF      CLOUDY    52  50  93 CALM      30.29R

$$

REGIONAL REPORTS    NEVADA/IDAHO/WYOMING

CITY           SKY/WX    TMP DP  RH WIND       PRES   REMARKS
LAS VEGAS, NV  SUNNY     72  52  49 S5        29.96R
ELY            SUNNY     57  46  66 SW16      30.14S
ELKO           CLOUDY    60  48  64 CALM      30.01S
POCATELLO, ID  CLOUDY    55  55 100 E8        30.06F
BURLEY         LGT RAIN  57  54  89 E9        29.98R
EVANSTON, WY   CLOUDY    52  45  77 E9        30.18F
ROCK SPRINGS   MOSUNNY   51  42  71 SE3       30.19S

$$



USA.gov is the U.S. government's official web portal to all federal, state and local government web resources and services.